Terminal Aerodrome Forecast
Issued by NWS Portland, OR

Home | Current Version | Previous Version | Text Only | Print | Product List | Glossary On
Versions: 1 2 3 4 5 6 7 8 9 10 11 12 13 14 15 16 17 18 19 20 21 22 23 24 25 26 27 28 29 30 31 32 33 34 35 36 37 38 39 40 41 42 43 44 45 46 47 48 49 50
000
FTUS46 KPQR 271120
TAFPDX
TAF
KPDX 271120Z 2712/2812 10004KT P6SM SCT002 BKN012
      TEMPO 2712/2716 1SM BR BKN002 OVC004
     FM271600 28003KT 3SM BR BKN004 OVC008
     FM272100 19003KT 6SM BR SCT008 BKN015 OVC025
     FM280000 19003KT P6SM SCT015 BKN030 OVC040
     FM280600 VRB03KT 6SM BR SCT008 BKN015 OVC025=

USA.gov is the U.S. government's official web portal to all federal, state and local government web resources and services.